Tracking 19709 objects as of 19-Jun-2019
HD Live streaming from Space Station
objects crossing your sky now

CLUSTER II-FM6

Track CLUSTER II-FM6 now!
CLUSTER II-FM6 is classified as:


NORAD ID: 26410
Int'l Code: 2000-041A
Perigee: 36,320.4 km
Apogee: 96,497.9 km
Inclination: 131.3 °
Period: 3,256.7 minutes
Semi major axis: 72780 km
RCS: 1.9953 m2 (large)
Launch date: July 16, 2000
Source: European Space Agency (ESA)
Launch site: TYURATAM MISSILE AND SPACE COMPLEX (TTMTR)
aabbcc
Your satellite tracking list
Your tracking list is empty




NASA's NSSDC Master Catalog

Two Line Element Set (TLE):
1 26410U 00041A   19172.45775236  .00000316  00000-0  00000+0 0  9996
2 26410 131.2760 338.9230 4134199 172.9883 359.4301  0.44216430 20744
Source of the keplerian elements: AFSPC